Regional Weather Roundup
Issued by NWS

Home | Current Version | Previous Version | Text Only | Print | Product List | Glossary On
Versions: 1 2 3 4 5 6 7 8 9 10 11 12 13 14 15 16 17 18 19 20 21 22 23 24 25 26 27 28 29 30 31 32 33 34 35 36 37 38 39 40 41 42 43 44 45 46 47 48 49 50
000
ASUS44 KFWD 210503
RWRTX
NORTH TEXAS HOURLY WEATHER ROUNDUP
NATIONAL WEATHER SERVICE FORT WORTH TX
1200 AM CDT TUE APR 21 2015

NOTE: "FAIR" INDICATES FEW OR NO CLOUDS BELOW 12,000 FEET WITH NO
SIGNIFICANT WEATHER AND/OR OBSTRUCTIONS TO VISIBILITY.

TXZ118-119-210600-
DALLAS/FORT WORTH METROPLEX

CITY           SKY/WX    TMP DP  RH WIND       PRES   REMARKS
DFW AIRPORT    PTCLDY    58  42  55 SE5       30.01R
DALLAS LOVE    PTCLDY    57  45  64 E3        30.02R
FTW MEACHAM    CLEAR     57  44  62 SE7       30.01R
DAL-EXECUTIVE  CLEAR     53  44  71 CALM      30.02R
FTW-ALLIANCE   PTCLDY    52  45  77 CALM      30.01R
FTW-NAS-JRB    CLEAR     59  44  57 E3        30.05S
FTW-SPINKS     CLEAR     52  46  81 CALM      30.04R
ARLINGTON      CLEAR     52  47  83 S3        30.02S
GRAND PRAIRIE  CLEAR     58  49  69 CALM      30.03S
MESQUITE       CLEAR     54  47  76 CALM      30.03R
LANCASTER      CLEAR     49  46  90 CALM      30.03S
$$

TXZ091>094-102>105-117-120-121-131>134-210600-
NORTH CENTRAL TEXAS

CITY           SKY/WX    TMP DP  RH WIND       PRES   REMARKS
SHRMAN/DENISON CLEAR     52  47  84 E3        30.02R
GAINESVILLE    CLEAR     52  46  81 CALM      30.03S
BRIDGEPORT     CLEAR     53  45  74 SE6       30.03S
DECATUR        CLEAR     56  39  52 SE6       30.01S
DENTON         CLEAR     53  48  83 CALM      30.01S
MCKINNEY       CLEAR     52  47  83 CALM      30.02R
GREENVILLE     CLEAR     52  48  87 CALM      30.02S
ROCKWALL       CLEAR     57  43  59 SE3       30.01S
TERRELL        CLEAR     55  50  83 CALM      30.03R
WAXAHACHIE     CLEAR     51  46  86 CALM      30.03S
CLEBURNE       CLEAR     54  45  71 CALM      30.03S
GRANBURY       MOCLDY    53  46  77 CALM      30.03R
$$

TXZ083>090-098>101-113>116-127>130-139>142-154-155-210600-
WESTERN NORTH TEXAS

CITY           SKY/WX    TMP DP  RH WIND       PRES   REMARKS
WICHITA FALLS  CLEAR     52  40  63 SE7       30.00R
WF-KICKAPOO    CLEAR     54  42  63 SE6       30.01R
VERNON         MOCLDY    56  37  48 SE6       30.00R
ABILENE        CLEAR     54  42  64 SE12      29.97S
ABILENE-DYESS  CLEAR     56  44  64 SE7       29.96S
BRECKENRIDGE   CLEAR     58  38  47 SE10      29.99R
GRAHAM         CLEAR     55  43  65 E3        29.99R
MINERAL WELLS  CLEAR     53  43  68 SE7       29.99F
STEPHENVILLE   CLEAR     55  40  58 SE6       30.03S
COMANCHE       CLEAR     53  45  73 S6        30.01S
COLEMAN        CLEAR     55  46  70 SE6       29.99S
BRADY          CLEAR     57  45  62 SE7       29.99R
$$

TXZ143>147-156>162-174-175-210600-
CENTRAL TEXAS

CITY           SKY/WX    TMP DP  RH WIND       PRES   REMARKS
WACO           MOCLDY    53  48  83 CALM      30.01F
WACO-MCGREGOR  MOCLDY    57  43  58 CALM      30.02F
HILLSBORO      PTCLDY    53  43  69 CALM      30.02S
CORSICANA      MOCLDY    58  50  75 CALM      30.03S
MEXIA          MOCLDY    58  46  64 MISG      30.01F
HEARNE         CLOUDY    60  49  65 CALM      30.03S
CAMERON        CLOUDY    61  55  82 CALM      30.01F
TEMPLE         MOCLDY    55  43  62 E5        30.01S
KILLEEN        MOCLDY    55  47  73 SE3       30.00F
KILLEEN-SKYLRK MOCLDY    59  45  58 E3        30.00F
FORT HOOD      MOCLDY    58  47  67 E5        30.00F
GATESVILLE     MOCLDY    55  48  76 CALM      30.03S
HAMILTON       PTCLDY    58  44  59 SE9G16    30.02S
LAMPASAS       MOCLDY    55  47  74 CALM      30.00F
$$

TXZ095>097-106>112-122>126-135>138-148>153-164>167-210600-
EAST TEXAS

CITY           SKY/WX    TMP DP  RH WIND       PRES   REMARKS
PARIS          CLEAR     54  41  62 MISG      30.02S
SULPHUR SPRNGS   N/A     53  48  82 S3        30.04S
MOUNT PLEASANT CLEAR     52  49  90 CALM      30.04R
GILMER         CLEAR     51  47  88 CALM      30.02R
TYLER          PTCLDY    55  48  77 CALM      30.02R
LONGVIEW       PTCLDY    53  49  86 CALM      30.01R
MARSHALL       PTCLDY    53  51  92 CALM      30.03S
ATHENS         PTCLDY    52  50  93 CALM      30.02S
PALESTINE      MOCLDY    53  47  81 CALM      30.03S
JACKSONVILLE   CLOUDY    60  43  54 CALM      30.04R
HENDERSON      PTCLDY    51  50  95 CALM      30.03S
NACOGDOCHES    CLOUDY    54  48  82 CALM      30.03R
LUFKIN         CLOUDY    59  53  80 CALM      30.02R
$$

SUPPLEMENTAL OBSERVATIONS (CENTRAL)

CITY           SKY/WX    TMP DP  RH WIND       PRES   REMARKS
$$

SUPPLEMENTAL OBSERVATIONS (WEST)

CITY           SKY/WX    TMP DP  RH WIND       PRES   REMARKS
$$

SUPPLEMENTAL OBSERVATIONS (EAST)

CITY           SKY/WX    TMP DP  RH WIND       PRES   REMARKS
$$

SUPPLEMENTAL OBSERVATIONS ARE A COLLECTION OF AUTOMATED INSTRUMENTS
THAT ARE MAINTAINED BY A VARIETY OF FEDERAL AND STATE AGENCIES.
CERTAIN ELEMENTS...SUCH AS HUMIDITY VALUES AND SUSTAINED WIND
SPEEDS...MAY BE APPROXIMATED.




USA.gov is the U.S. government's official web portal to all federal, state and local government web resources and services.